Regional Weather Roundup
Issued by NWS Green Bay, WI

Home | Current Version | Previous Version | Text Only | Print | Product List | Glossary On
Versions: 1 2 3 4 5 6 7 8 9 10 11 12 13 14 15 16 17 18 19 20 21 22 23 24 25 26 27 28 29 30 31 32 33 34 35 36 37 38 39 40 41 42 43 44 45 46 47 48 49 50
000
ASUS43 KGRB 031111
RWRGRB

NORTH-CENTRAL AND NORTHEAST WISCONSIN REGIONAL WEATHER ROUNDUP
NATIONAL WEATHER SERVICE GREEN BAY WI
600 AM CDT MON AUG 03 2015

WIZ005-009-010>012-018-019-031200-
NORTH CENTRAL WISCONSIN

CITY           SKY/WX    TMP DP  RH WIND       PRES   REMARKS
IRONWOOD       CLOUDY    57  50  77 W9        29.74S
MANITOWISH WTR CLEAR     52  50  94 W3        29.78S
ARBOR VITAE    CLEAR     55  51  87 CALM      29.79R
EAGLE RIVER    PTCLDY    50  48  94 W6        29.78R
LAND O LAKES   PTCLDY    55  49  79 W3        29.78R
RHINELANDER    CLEAR     50  48  93 W7        29.80R
PHILLIPS       CLEAR     51  49  92 CALM      29.80S
ANTIGO         CLEAR     51  49  95 CALM      29.80S
TOMAHAWK       PTCLDY    49  47  93 CALM      29.81R
MERRILL        NOT AVBL
$$

WIZ013-073-031200-
NORTHEAST WISCONSIN

CITY           SKY/WX    TMP DP  RH WIND       PRES   REMARKS
IRON MOUNTAIN  CLOUDY    58  51  78 W5        29.73R
MARINETTE      CLOUDY    57  52  82 CALM      29.74R
OCONTO         MOCLDY    57  57 100 W5        29.75R
$$

WIZ017-030-035>037-045-031200-
CENTRAL WISCONSIN

CITY           SKY/WX    TMP DP  RH WIND       PRES   REMARKS
MEDFORD        CLEAR     51  48  89 W5        29.82S
WAUSAU         CLEAR     57  50  77 NW9       29.79R
MOSINEE        NOT AVBL
MARSHFIELD     CLEAR     54  47  77 NW6       29.83R
WISC RAPIDS    CLEAR     56  49  77 W7        29.83R
STEVENS POINT  CLEAR     56  50  79 NW3       29.82R
WAUPACA        CLEAR     60  55  85 W7        29.80S
SHAWANO        CLEAR     57  54  87 W6        29.78R
CLINTONVILLE   CLEAR     55  52  88 W3        29.79R
$$

WIZ038-039-048-051-031200-
FOX VALLEY

CITY           SKY/WX    TMP DP  RH WIND       PRES   REMARKS
NWS GREEN BAY  CLEAR     57  55  93 W8        29.77R
APPLETON       PTCLDY    55  54  94 W9        29.79R
OSHKOSH        CLEAR     59  53  80 W5        29.79R
FOND DU LAC    CLEAR     60  54  80 W8        29.80R
$$

WIZ022-050-052-031200-
EAST CENTRAL WISCONSIN

CITY           SKY/WX    TMP DP  RH WIND       PRES   REMARKS
STURGEON BAY   CLEAR     59  52  77 NW6       29.77R
MANITOWOC      CLEAR     61  56  83 MISG      29.78R
SHEBOYGAN      CLEAR     61  58  90 W6        29.79R
$$

LMZ563-521-522-541>543-031200-
LAKESHORE

STATION/POSITION TIME  TEMP    WIND        PRES    VSBY  WAVE
                       AIR SEA DIR/SP/G                  HT/PER
                 (UTC) (F)     (DEG/KT/KT) (MB)    (MI)  (FT/S)
SHEBOYGAN LKSHOR 1100   64     280/ 11/ 12 1008.6R
KEWAUNEE LKSHORE 1000   60     290/  4/  5 1006.6R
ALGOMA MARINA    1012           CALM  /  3   N/A
NORTHPORT PIER   1000   63     280/  5/  9 1006.1R
N MID LAKE BUOY  1050   64 68  270/ 14/ 14 1005.3R         1/ 3
S GREEN BAY BUOY 1100   61 64  280/ 12/ 14 1008.9R
SISTER BAY LKSHO 1048   64     320/ 21/ 23   N/A
CHAMBERS ISLAND  1000   61     270/  3/ 10 1006.4R
MENOMINEE LKSHOR 1000   60     280/  6/ 10 1007.5R
$$


USA.gov is the U.S. government's official web portal to all federal, state and local government web resources and services.